User: anonymous   Login
Location: Unspecified
(0.0000°N, 0.0000°E)
Time: 20:10:38
(UTC+00:00)
Language:

STARLINK-1598 - Orbit

View from above orbital plane
View from above orbital plane
View from above satellite
View from above satellite

Ground track
Ground track

The orbit is defined by the following mean orbital elements,

1 46160U          26145.04783963 +.00000000 +00000-0 +69898-3 0 00001
2 46160  53.0454 271.1701 0002917 156.1690 203.9461 15.69309083    05
Epoch (UTC): 25 May 2026 01:08:53
Eccentricity: 0.0002917
inclination: 53.0454°
perigee height: 359 km
apogee height: 363 km
right ascension of ascending node: 271.1701°
argument of perigee: 156.1690°
revolutions per day: 15.69309083
mean anomaly at epoch: 203.9461°

The dashed part of the orbit path shows where the satellite is in the earth's shadow,  

DLR